Location: Izdebno
(52.6670°N, 16.2170°E)
Time: 10:57:43
(UTC+01:00)

ISS - Visible Passes

Search period start: 22 March 2019 00:00
Search period end: 01 April 2019 01:00
Orbit: 406 x 411 km, 51.6° (Epoch: 22 March)

Date Brightness Start Highest point End Pass type
(mag) Time Alt. Az. Time Alt. Az. Time Alt. Az.
22 Mar -2.0 19:39:02 10° S 19:40:45 17° SSE 19:40:45 17° SSE visible
23 Mar -1.6 18:49:11 10° SSE 18:50:34 12° SE 18:51:59 10° ESE visible
23 Mar -2.3 20:23:22 10° SW 20:25:12 27° SSW 20:25:12 27° SSW visible
24 Mar -2.9 19:32:38 10° SW 19:35:35 30° SSE 19:36:40 24° ESE visible
24 Mar -1.2 21:08:35 10° WSW 21:09:26 17° WSW 21:09:26 17° WSW visible
25 Mar -3.8 20:17:35 10° WSW 20:20:44 60° S 20:20:44 60° S visible
26 Mar -3.5 19:26:38 10° SW 19:29:50 48° SSE 19:31:55 19° E visible
26 Mar -2.0 21:02:58 10° W 21:04:40 28° W 21:04:40 28° W visible
27 Mar -3.9 20:11:54 10° W 20:15:12 74° S 20:15:45 56° ESE visible
27 Mar -0.6 21:48:24 10° W 21:48:29 10° W 21:48:29 10° W visible
28 Mar -3.8 19:20:50 10° WSW 19:24:08 66° SSE 19:26:45 15° E visible
28 Mar -2.5 20:57:19 10° W 20:59:30 37° W 20:59:30 37° W visible
29 Mar -3.9 20:06:13 10° W 20:09:31 75° S 20:10:27 43° ESE visible
29 Mar -0.8 21:42:47 10° W 21:43:10 13° W 21:43:10 13° W visible
30 Mar -3.8 19:15:06 10° W 19:18:24 76° S 19:21:22 12° E visible
30 Mar -2.8 20:51:38 10° W 20:54:05 40° WSW 20:54:05 40° WSW visible
31 Mar -3.7 21:00:29 10° W 21:03:46 62° SSW 21:04:59 34° SE visible
31 Mar -0.9 22:37:16 10° W 22:37:42 12° W 22:37:42 12° W visible
